Weather History for Pampa / Mesa Vista, TX

Change the Weather History Date:

Wednesday, January 29, 2014

  Actual Average (KBGD) Record (KBGD)
Temperature  
Mean Temperature 35 °F 40 °F  
Max Temperature 53 °F 53 °F 74 °F (1971)
Min Temperature 17 °F 27 °F -2 °F (1966)
Degree Days  
Heating Degree Days 30 25  
Month to date heating degree days 766  
Since 1 July heating degree days 2303  
Cooling Degree Days 0 0  
Month to date cooling degree days 0  
Year to date cooling degree days 0  
Moisture  
Dew Point 4 °F    
Average Humidity 30    
Maximum Humidity 53    
Minimum Humidity 14    
Precipitation  
Precipitation 0.00 in 0.03 in 1.67 in (1999)
Month to date precipitation 0.54  
Year to date precipitation 0.54  
Snow  
Snow 0.00 in - 8.00 in (1999)
Month to date snowfall  
Since 1 July snowfall  
Snow Depth -    
Sea Level Pressure  
Sea Level Pressure 30.03 in    
Wind  
Wind Speed 12 mph (SW)    
Max Wind Speed 23 mph    
Max Gust Speed 29 mph    
Visibility 10 miles    
Events      
T = Trace of Precipitation, MM = Missing Value Source: NWS Daily Summary

Daily Weather History Graph

Daily Weather History Graph

Search for Another Location

Airport:

Trip Planner

Search our weather history database for the weather conditions in past years. The results will help you decide how hot, cold, wet, or windy it might be!

Date:

Astronomy

Jan. 29, 2014 Rise Set
Actual Time 7:46 AM CST 6:08 PM CST
Civil Twilight 7:19 AM CST 6:35 PM CST
Nautical Twilight 6:48 AM CST 7:06 PM CST
Astronomical Twilight 6:18 AM CST 7:36 PM CST
Moon 6:24 AM CST (1/29) 5:09 PM CST (1/29)
Length of Visible Light 11h 15m
Length of Day
10h 21m
Waning Crescent, 2% of the Moon is Illuminated
Jan 29
Waning Crescent
Jan 30
New
Feb 6
First Quarter
Feb 14
Full
Feb 22
Last Quarter

Hourly Weather History & Observations

Time (CST) Temp. Windchill Dew Point Humidity Pressure Visibility Wind Dir Wind Speed Gust Speed Precip Events Conditions
12:15 AM 19.4 °F 7.9 °F 3.2 °F 49% 30.24 in 10.0 mi SW 10.4 mph - N/A   Clear
12:35 AM 17.6 °F 6.4 °F 1.4 °F 49% 30.23 in 10.0 mi SW 9.2 mph - N/A   Clear
12:55 AM 17.6 °F 6.4 °F 1.4 °F 49% 30.23 in 10.0 mi SW 9.2 mph - N/A   Clear
1:15 AM 17.6 °F 7.3 °F 1.4 °F 49% 30.22 in 10.0 mi SW 8.1 mph - N/A   Clear
1:35 AM 17.6 °F 8.2 °F 1.4 °F 49% 30.22 in 10.0 mi SW 6.9 mph - N/A   Clear
1:55 AM 17.6 °F 6.4 °F 3.2 °F 53% 30.20 in 10.0 mi SW 9.2 mph - N/A   Clear
2:15 AM 19.4 °F 9.5 °F 3.2 °F 49% 30.19 in 10.0 mi SW 8.1 mph - N/A   Clear
2:35 AM 23.0 °F 13.9 °F 3.2 °F 43% 30.19 in 10.0 mi SW 8.1 mph - N/A   Clear
2:55 AM 23.0 °F 13.9 °F 3.2 °F 43% 30.19 in 10.0 mi SW 8.1 mph - N/A   Clear
3:15 AM 21.2 °F 11.7 °F 1.4 °F 42% 30.19 in 10.0 mi SW 8.1 mph - N/A   Clear
3:35 AM 21.2 °F 10.9 °F 1.4 °F 42% 30.18 in 10.0 mi SW 9.2 mph - N/A   Clear
3:55 AM 21.2 °F 11.7 °F 1.4 °F 42% 30.17 in 10.0 mi SW 8.1 mph - N/A   Clear
4:15 AM 19.4 °F 10.4 °F 1.4 °F 46% 30.17 in 10.0 mi WSW 6.9 mph - N/A   Clear
4:35 AM 21.2 °F 12.6 °F 1.4 °F 42% 30.16 in 10.0 mi SW 6.9 mph - N/A   Clear
4:55 AM 21.2 °F 10.9 °F 1.4 °F 42% 30.16 in 10.0 mi SW 9.2 mph - N/A   Clear
5:15 AM 21.2 °F 12.6 °F 1.4 °F 42% 30.16 in 10.0 mi SW 6.9 mph - N/A   Clear
5:35 AM 19.4 °F 9.5 °F 1.4 °F 46% 30.15 in 10.0 mi WSW 8.1 mph - N/A   Clear
5:55 AM 19.4 °F 10.4 °F 1.4 °F 46% 30.14 in 10.0 mi SW 6.9 mph - N/A   Clear
6:15 AM 21.2 °F 10.1 °F 1.4 °F 42% 30.13 in 10.0 mi SW 10.4 mph - N/A   Clear
6:35 AM 23.0 °F 12.4 °F -0.4 °F 36% 30.13 in 10.0 mi SW 10.4 mph - N/A   Clear
6:55 AM 23.0 °F 11.7 °F -0.4 °F 36% 30.12 in 10.0 mi SW 11.5 mph - N/A   Clear
7:15 AM 23.0 °F 13.1 °F -0.4 °F 36% 30.13 in 10.0 mi WSW 9.2 mph - N/A   Clear
7:35 AM 23.0 °F 12.4 °F -0.4 °F 36% 30.13 in 10.0 mi SW 10.4 mph - N/A   Clear
7:55 AM 23.0 °F 12.4 °F -0.4 °F 36% 30.12 in 10.0 mi SW 10.4 mph - N/A   Clear
8:15 AM 23.0 °F 12.4 °F -0.4 °F 36% 30.12 in 10.0 mi SW 10.4 mph - N/A   Clear
8:35 AM 24.8 °F 14.6 °F -0.4 °F 34% 30.13 in 10.0 mi WSW 10.4 mph - N/A   Clear
8:55 AM 26.6 °F 19.1 °F -0.4 °F 31% 30.12 in 10.0 mi SW 6.9 mph - N/A   Clear
9:15 AM 28.4 °F 19.1 °F -0.4 °F 29% 30.12 in 10.0 mi SW 10.4 mph - N/A   Clear
9:35 AM 30.2 °F 19.8 °F -0.4 °F 27% 30.11 in 10.0 mi WSW 13.8 mph 18.4 mph N/A   Clear
9:55 AM 32.0 °F 24.2 °F -0.4 °F 25% 30.11 in 10.0 mi SW 9.2 mph - N/A   Clear
10:15 AM 33.8 °F 24.3 °F -0.4 °F 23% 30.10 in 10.0 mi WSW 13.8 mph - N/A   Clear
10:35 AM 33.8 °F 23.5 °F -0.4 °F 23% 30.11 in 10.0 mi WSW 16.1 mph 20.7 mph N/A   Clear
10:55 AM 35.6 °F 25.5 °F -0.4 °F 22% 30.11 in 10.0 mi WSW 17.3 mph 21.9 mph N/A   Clear
11:15 AM 37.4 °F 28.2 °F 1.4 °F 22% 30.11 in 10.0 mi SW 16.1 mph 23.0 mph N/A   Clear
11:35 AM 39.2 °F 30.8 °F 1.4 °F 21% 30.10 in 10.0 mi WSW 15.0 mph - N/A   Clear
11:55 AM 41.0 °F 32.8 °F 1.4 °F 19% 30.10 in 10.0 mi SW 16.1 mph 21.9 mph N/A   Clear
12:15 PM 42.8 °F 35.4 °F 1.4 °F 18% 30.09 in 10.0 mi SW 15.0 mph 23.0 mph N/A   Clear
12:35 PM 42.8 °F 36.6 °F 1.4 °F 18% 30.07 in 10.0 mi SW 11.5 mph 23.0 mph N/A   Clear
12:55 PM 44.6 °F 38.4 °F 1.4 °F 17% 30.05 in 10.0 mi SW 12.7 mph 19.6 mph N/A   Clear
1:15 PM 46.4 °F 39.8 °F 3.2 °F 17% 30.04 in 10.0 mi SW 16.1 mph 19.6 mph N/A   Clear
1:35 PM 48.2 °F - 3.2 °F 16% 30.01 in 10.0 mi SW 17.3 mph 21.9 mph N/A   Clear
1:55 PM 50.0 °F - 3.2 °F 15% 30.01 in 10.0 mi SW 12.7 mph 17.3 mph N/A   Clear
2:15 PM 50.0 °F - 3.2 °F 15% 29.99 in 10.0 mi SW 16.1 mph 21.9 mph N/A   Clear
2:35 PM 51.8 °F - 5.0 °F 15% 29.98 in 10.0 mi SSW 15.0 mph 23.0 mph N/A   Clear
2:55 PM 51.8 °F - 5.0 °F 15% 29.95 in 10.0 mi SSW 18.4 mph 24.2 mph N/A   Clear
3:15 PM 51.8 °F - 5.0 °F 15% 29.95 in 10.0 mi SW 20.7 mph 25.3 mph N/A   Clear
3:35 PM 53.6 °F - 5.0 °F 14% 29.94 in 10.0 mi SW 16.1 mph 24.2 mph N/A   Clear
3:55 PM 53.6 °F - 6.8 °F 15% 29.94 in 10.0 mi SSW 16.1 mph 21.9 mph N/A   Clear
4:15 PM 53.6 °F - 6.8 °F 15% 29.93 in 10.0 mi SSW 17.3 mph 23.0 mph N/A   Clear
4:35 PM 51.8 °F - 8.6 °F 18% 29.92 in 10.0 mi South 16.1 mph 27.6 mph N/A   Clear
4:55 PM 51.8 °F - 8.6 °F 18% 29.91 in 10.0 mi SSW 15.0 mph 24.2 mph N/A   Clear
5:15 PM 51.8 °F - 6.8 °F 16% 29.91 in 10.0 mi SSW 18.4 mph 25.3 mph N/A   Clear
5:35 PM 51.8 °F - 6.8 °F 16% 29.90 in 10.0 mi SSW 13.8 mph 19.6 mph N/A   Clear
5:55 PM 50.0 °F - 6.8 °F 17% 29.90 in 10.0 mi SSW 12.7 mph 18.4 mph N/A   Clear
6:15 PM 46.4 °F 41.9 °F 8.6 °F 22% 29.90 in 10.0 mi South 9.2 mph - N/A   Clear
6:35 PM 41.0 °F 35.2 °F 8.6 °F 26% 29.90 in 10.0 mi South 9.2 mph - N/A   Clear
6:55 PM 41.0 °F 35.2 °F 8.6 °F 26% 29.90 in 10.0 mi South 9.2 mph - N/A   Clear
7:15 PM 41.0 °F 34.3 °F 8.6 °F 26% 29.89 in 10.0 mi South 11.5 mph - N/A   Clear
7:35 PM 41.0 °F 34.3 °F 8.6 °F 26% 29.88 in 10.0 mi South 11.5 mph - N/A   Clear
7:55 PM 41.0 °F 32.8 °F 8.6 °F 26% 29.87 in 10.0 mi South 16.1 mph - N/A   Clear
8:15 PM 41.0 °F 31.9 °F 8.6 °F 26% 29.87 in 10.0 mi South 19.6 mph 24.2 mph N/A   Clear
8:35 PM 41.0 °F 31.6 °F 8.6 °F 26% 29.85 in 10.0 mi South 20.7 mph 27.6 mph N/A   Clear
8:55 PM 41.0 °F 31.4 °F 8.6 °F 26% 29.84 in 10.0 mi South 21.9 mph 27.6 mph N/A   Clear
9:15 PM 41.0 °F 31.1 °F 8.6 °F 26% 29.83 in 10.0 mi South 23.0 mph 28.8 mph N/A   Clear
9:35 PM 37.4 °F 26.9 °F 8.6 °F 30% 29.82 in 10.0 mi South 20.7 mph 28.8 mph N/A   Clear
9:55 PM 37.4 °F 26.6 °F 8.6 °F 30% 29.81 in 10.0 mi South 21.9 mph 28.8 mph N/A   Clear
10:15 PM 37.4 °F 26.6 °F 8.6 °F 30% 29.79 in 10.0 mi South 21.9 mph 28.8 mph N/A   Clear
10:35 PM 39.2 °F 29.3 °F 8.6 °F 28% 29.79 in 10.0 mi South 20.7 mph 28.8 mph N/A   Clear
10:55 PM 37.4 °F 27.2 °F 8.6 °F 30% 29.78 in 10.0 mi South 19.6 mph 27.6 mph N/A   Clear
11:15 PM 39.2 °F 29.6 °F 8.6 °F 28% 29.77 in 10.0 mi South 19.6 mph 28.8 mph N/A   Clear
11:35 PM 39.2 °F 29.6 °F 8.6 °F 28% 29.76 in 10.0 mi SSW 19.6 mph 26.5 mph N/A   Clear
11:55 PM 41.0 °F 31.1 °F 8.6 °F 26% 29.75 in 10.0 mi SSW 23.0 mph 28.8 mph N/A   Clear